Flag for Germany Weather past 2 weeks in Warburg, North Rhine-Westphalia, Germany

Now
52 °F

Scattered showers. Broken clouds.


Feels Like: 47 °F
Forecast: 42 / 66 °F
Wind: 15 mph from West

Location: Kassel / Calden

Current Time: May 30, 2015 at 10:44:12 AM

Latest Report: May 30, 2015 at 10:20 AM


Visibility: N/A

Pressure: 29.89 "Hg

Humidity: 67%

Dew point: 41 °F

Location of WarburgLocation

Historic Weather in Warburg — Graph

°F

Warburg temperature yesterday

Maximum temperature yesterday: 63 °F (at 2:50 PM)
Minimum temperature yesterday: 46 °F (at 6:20 AM)
Average temperature yesterday: 56 °F

Past Weeks' High & Low Weather Summary

 TemperatureHumidityPressure
High68 °F (May 18, 3:50 PM)100% (May 25, 7:20 AM)30.33 "Hg (May 25, 7:20 AM)
Low37 °F (May 16, 5:50 AM)34% (May 22, 3:20 PM)29.65 "Hg (May 18, 7:20 PM)
Average55 °F65%30.03 "Hg
* Reported May 15 9:20 AM — May 30 9:20 AM, Warburg, Weather by CustomWeather, © 2015

Note: Actual official high and low records may vary slightly from our data, if they occured in-between our weather recording intervals... More about our weather records

Advertising

Warburg weather history for previous 24 hours

 ConditionsComfort  
Time TempWeatherWind HumidityBarometerVisibility
9:20 AM
Sat, May 30
52 °FBroken clouds.8 mph77%29.86 "HgN/A
8:50 AM48 °FBroken clouds.6 mph87%29.86 "HgN/A
8:20 AM48 °FScattered showers. Partly sunny.6 mph87%29.86 "HgN/A
7:50 AM48 °FBroken clouds.7 mph87%29.86 "HgN/A
7:20 AM48 °FBroken clouds.6 mph82%29.83 "HgN/A
6:50 AM46 °FScattered showers. Broken clouds.7 mph87%29.83 "HgN/A
6:20 AM46 °FBroken clouds.8 mph87%29.83 "HgN/A
5:50 AM46 °FPartly cloudy.7 mph87%29.80 "HgN/A
9:50 PM
Fri, May 29
52 °FSunny.9 mph94%29.77 "Hg10 mi
9:20 PM54 °FSunny.9 mph88%29.77 "Hg10 mi
8:50 PM54 °FPartly sunny.10 mph88%29.74 "HgN/A
8:20 PM55 °FScattered clouds.9 mph82%29.77 "HgN/A
7:50 PM54 °FPartly sunny.8 mph88%29.74 "HgN/A
7:20 PM54 °FLight rain. Broken clouds.9 mph88%29.77 "HgN/A
6:50 PM55 °FLight rain. Broken clouds.10 mph82%29.77 "HgN/A
6:20 PM55 °FLight rain. Broken clouds.13 mph72%29.77 "HgN/A
5:50 PM57 °FPartly sunny.10 mph67%29.77 "HgN/A
5:20 PM59 °FPartly sunny.16 mph59%29.77 "HgN/A
4:50 PM61 °FPassing clouds.15 mph52%29.77 "HgN/A
4:20 PM61 °FPassing clouds.15 mph52%29.77 "HgN/A
3:50 PM63 °FPassing clouds.14 mph52%29.77 "HgN/A
3:20 PM61 °FPassing clouds.14 mph52%29.80 "HgN/A
2:50 PM63 °FPassing clouds.14 mph52%29.80 "HgN/A
2:20 PM61 °FPassing clouds.13 mph52%29.80 "HgN/A
1:50 PM59 °FBroken clouds.13 mph55%29.83 "HgN/A
1:20 PM59 °FBroken clouds.15 mph51%29.83 "HgN/A
12:50 PM59 °FScattered clouds.14 mph55%29.83 "HgN/A
12:20 PM59 °FScattered clouds.12 mph55%29.86 "HgN/A
11:50 AM59 °FScattered clouds.9 mph59%29.86 "HgN/A
11:20 AM59 °FScattered clouds.9 mph63%29.86 "HgN/A
10:50 AM57 °FScattered clouds.10 mph67%29.86 "HgN/A
10:20 AM57 °FScattered clouds.10 mph67%29.86 "HgN/A
Weather by CustomWeather, © 2015

See weather overviewHow to use our weather pages